Tracking 27423 objects as of 8-Jun-2023
HD Live streaming from Space Station
objects crossing your sky now

FREGAT DEB

Track FREGAT DEB now!
10-day predictions


NORAD ID: 45979
Int'l Code: 2011-037GL
Perigee: 713.5 km
Apogee: 4,033.9 km
Inclination: 51.5 °
Period: 135.6 minutes
Semi major axis: 8744 km
RCS: Unknown
Launch date: July 18, 2011
Source: Commonwealth of Independent States (former USSR) (CIS)
Launch site: TYURATAM MISSILE AND SPACE COMPLEX (TTMTR)

Note: This is SATELLITE DEBRIS
Your satellite tracking list
Your tracking list is empty




NASA's NSSDC Master Catalog

Two Line Element Set (TLE):
1 45979U 11037GL  23159.18728759  .00000705  00000-0  14284-2 0  9996
2 45979  51.5065 124.2717 1898487  47.1088 327.4218 10.61659356111489
Source of the keplerian elements: AFSPC